weather.gov     
National Weather Service

Terminal Aerodrome Forecast
NWS Homepage
This page is being discontinued on March 12, 2014.
The same data is available at this site. Please update your bookmarks.
Thank you, and we apologize for the inconvenience.
Please send an email to SR-SRH.Webmaster@noaa.gov with any concerns.


Current Version
Previous Version:    01  02  03  04  05  06  07  08  09  10  11  12  13  14  15  16  17  18  19  20  21  22  23  
[Printable]
175
FTUS44 KOUN 221128
TAFGAG
TAF
KGAG 221128Z 2212/2312 17012KT P6SM SCT070
     FM221500 19016G22KT P6SM BKN080 OVC200
      TEMPO 2218/2222 4SM -TSRA OVC040CB
     FM230200 17011KT P6SM BKN040=


175
FTUS44 KOUN 221128
TAFGAG
TAF
KGAG 221128Z 2212/2312 17012KT P6SM SCT070
     FM221500 19016G22KT P6SM BKN080 OVC200
      TEMPO 2218/2222 4SM -TSRA OVC040CB
     FM230200 17011KT P6SM BKN040=




U.S. Dept. of Commerce
NOAA National Weather Service
1325 East West Highway
Silver Spring, MD 20910
E-mail: w-nws.webmaster@noaa.gov
Page last modified: May 16, 2007
NATIONAL WEATHER SERVICE: for Safety, for Work, for Fun - FOR LIFE